Total_Precipitation_Accumulation
2.34 2.44 2.42 2.38 2.38 2.32 2.40 2.50 2.58 2.47 2.21 1.95 1.87 1.76 1.78 1.81 1.97 1.61 1.59 1.78 1.57 1.44 1.38 1.36 1.34 1.27 1.24 1.25 1.25 1.26 1.27 1.33 1.44 1.54 1.63 1.74 1.88 2.09
2.08 2.24 2.30 2.30 2.41 2.45 2.54 2.57 2.58 2.58 2.42 2.05 1.95 1.85 1.83 1.75 2.05 1.77 1.73 1.83 1.57 1.38 1.25 1.19 1.16 1.11 1.08 1.11 1.15 1.18 1.18 1.15 1.16 1.23 1.33 1.43 1.55 1.69
1.89 1.98 2.07 2.13 2.25 2.28 2.35 2.37 2.46 2.51 2.44 2.15 2.02 2.01 2.01 1.95 1.98 1.84 1.75 1.69 1.55 1.42 1.23 1.11 1.08 1.05 1.03 1.05 1.08 1.08 1.12 1.13 1.13 1.13 1.17 1.24 1.31 1.39
1.76 1.83 1.89 1.91 1.99 1.95 2.04 2.10 2.14 2.22 2.23 2.23 2.22 2.16 2.13 2.08 1.99 1.81 1.56 1.38 1.34 1.33 1.18 1.11 1.07 1.06 1.09 1.12 1.12 1.11 1.08 1.04 1.04 1.08 1.12 1.11 1.12 1.20
1.53 1.58 1.63 1.67 1.64 1.59 1.65 1.66 1.77 1.88 2.08 2.11 2.07 2.13 2.11 2.12 2.22 1.93 1.68 1.62 1.24 1.19 1.12 1.09 1.08 1.04 1.03 1.03 1.02 1.00 0.99 0.92 0.85 0.86 0.94 1.03 1.06 1.03
1.30 1.33 1.33 1.29 1.26 1.30 1.31 1.37 1.53 1.80 1.98 2.01 1.89 1.89 1.95 1.95 2.14 2.03 1.91 1.77 1.49 1.12 1.06 0.98 0.98 0.98 0.95 0.88 0.85 0.83 0.83 0.85 0.85 0.83 0.84 0.85 0.88 0.90
1.16 1.14 1.10 1.08 1.12 1.10 1.03 1.15 1.40 1.67 1.78 1.84 1.82 1.77 1.75 1.82 1.87 1.78 1.78 1.79 1.67 1.35 1.23 1.01 0.91 0.94 0.97 0.94 0.89 0.80 0.73 0.72 0.73 0.74 0.75 0.77 0.80 0.84
1.17 1.07 0.99 0.94 0.92 0.93 0.93 1.02 1.17 1.31 1.44 1.57 1.61 1.61 1.61 1.66 1.77 1.77 1.77 1.80 1.75 1.50 1.46 1.31 1.07 1.12 1.07 0.97 0.91 0.81 0.78 0.76 0.74 0.74 0.76 0.77 0.76 0.78
1.18 1.18 1.02 0.86 0.94 0.97 0.99 1.03 1.06 1.11 1.21 1.39 1.50 1.46 1.53 1.67 1.87 1.84 1.84 1.83 1.73 1.56 1.62 1.57 1.39 1.32 1.05 0.89 0.91 0.82 0.76 0.74 0.74 0.73 0.76 0.77 0.78 0.77
1.08 1.10 1.11 1.06 0.99 1.04 1.02 1.04 1.06 1.11 1.17 1.24 1.39 1.43 1.40 1.54 1.77 1.79 1.81 1.79 1.70 1.58 1.66 1.70 1.44 1.33 1.05 1.07 0.97 0.80 0.72 0.72 0.71 0.66 0.67 0.70 0.76 0.81
0.91 0.90 0.89 0.89 0.89 0.97 1.05 1.15 1.15 1.12 0.99 1.05 1.11 1.20 1.32 1.41 1.50 1.58 1.73 1.88 1.79 1.61 1.59 1.69 1.53 1.40 1.23 1.23 1.07 0.89 0.80 0.81 0.75 0.64 0.59 0.59 0.63 0.73
0.86 0.82 0.79 0.74 0.71 0.71 0.82 1.04 1.16 1.11 1.04 1.04 1.16 1.32 1.40 1.45 1.44 1.51 1.66 1.79 1.78 1.77 1.58 1.63 1.60 1.54 1.50 1.27 1.15 1.08 1.05 1.07 0.95 0.76 0.63 0.60 0.63 0.69
0.81 0.81 0.78 0.67 0.57 0.59 0.71 0.89 0.96 0.95 1.05 1.28 1.50 1.56 1.56 1.51 1.41 1.39 1.54 1.68 1.74 1.74 1.51 1.58 1.64 1.66 1.71 1.48 1.18 1.17 1.24 1.31 1.25 1.04 0.83 0.74 0.71 0.70
0.77 0.77 0.72 0.65 0.56 0.58 0.65 0.78 0.83 0.95 1.20 1.46 1.61 1.58 1.39 1.25 1.24 1.25 1.32 1.48 1.59 1.57 1.48 1.52 1.63 1.69 1.67 1.54 1.34 1.25 1.35 1.45 1.47 1.35 1.13 1.00 0.93 0.87
0.68 0.68 0.64 0.65 0.67 0.76 0.81 0.83 0.91 1.11 1.33 1.44 1.45 1.35 1.24 1.19 1.22 1.27 1.26 1.40 1.47 1.34 1.23 1.27 1.44 1.55 1.65 1.59 1.50 1.52 1.60 1.71 1.66 1.60 1.47 1.23 1.08 1.03
0.66 0.72 0.79 0.85 0.87 0.90 0.96 1.04 1.11 1.19 1.21 1.29 1.28 1.23 1.17 1.20 1.24 1.21 1.26 1.37 1.50 1.43 1.29 1.24 1.32 1.48 1.58 1.54 1.61 1.68 1.73 1.95 1.89 1.75 1.66 1.55 1.35 1.15
0.65 0.79 0.97 1.05 1.07 1.04 1.03 1.06 1.10 1.12 1.14 1.13 1.12 1.13 1.16 1.16 1.15 1.13 1.20 1.26 1.38 1.38 1.37 1.35 1.37 1.42 1.39 1.39 1.49 1.53 1.62 1.78 1.87 1.80 1.76 1.82 1.76 1.49
0.68 0.91 1.06 1.11 1.13 1.03 0.98 0.95 0.95 0.96 0.94 0.95 1.00 1.06 1.09 1.07 1.08 1.08 1.12 1.19 1.28 1.27 1.30 1.34 1.39 1.52 1.53 1.38 1.39 1.46 1.47 1.65 1.76 1.72 1.63 1.76 1.89 1.67
0.65 0.80 0.93 1.04 1.07 0.97 0.91 0.91 0.91 0.90 0.90 0.92 0.97 1.00 1.02 1.01 1.04 1.07 1.08 1.14 1.18 1.20 1.22 1.23 1.27 1.39 1.49 1.48 1.41 1.42 1.45 1.52 1.57 1.56 1.56 1.60 1.76 1.68
0.68 0.73 0.80 0.90 0.97 0.94 0.90 0.91 0.91 0.91 0.91 0.92 0.94 0.99 1.04 1.05 1.01 1.01 1.03 1.05 1.10 1.16 1.20 1.22 1.23 1.25 1.31 1.34 1.46 1.46 1.37 1.27 1.25 1.33 1.37 1.45 1.55 1.53
0.71 0.73 0.74 0.77 0.82 0.86 0.90 0.92 0.90 0.88 0.88 0.88 0.89 0.96 1.01 1.01 1.00 0.96 0.95 0.96 1.02 1.08 1.15 1.19 1.19 1.14 1.16 1.24 1.37 1.41 1.36 1.37 1.27 1.17 1.17 1.26 1.27 1.18
0.70 0.75 0.76 0.75 0.76 0.75 0.78 0.83 0.85 0.81 0.78 0.81 0.88 0.96 1.00 1.00 0.96 0.90 0.92 0.98 1.02 1.05 1.08 1.07 1.03 1.07 1.14 1.25 1.33 1.38 1.33 1.20 1.16 1.17 1.12 0.99 0.86 0.90
0.77 0.76 0.74 0.75 0.72 0.68 0.70 0.74 0.74 0.73 0.73 0.75 0.82 0.89 0.90 0.89 0.88 0.82 0.79 0.81 0.84 0.88 0.95 1.03 1.05 1.05 1.05 1.09 1.16 1.16 1.10 1.00 0.89 0.91 1.01 1.00 0.85 0.80